KE7PBG Weather Reports


Display with metric or nautical units.
time (UTC)temp
F
wind
direction
speed
MPH
gust
MPH
rain 1hr
in
rain 24hr
in
rain mn
in
humidity
%
barometer
mb
20260510050040 55 57 0.0 0.0 0.00 0.00 0.00 82 1009.6
20260510044539 56 57 0.0 0.0 0.00 0.00 0.00 81 1009.5
20260510043046 58 57 0.0 0.0 0.00 0.00 0.00 78 1009.4
20260510041542 59 57 0.0 0.0 0.00 0.00 0.00 77 1009.4
20260510040050 60 57 0.0 0.0 0.00 0.00 0.00 75 1009.2
20260510034547 62 57 0.0 0.0 0.00 0.00 0.00 73 1009.2
20260510033053 64 57 0.0 0.0 0.00 0.00 0.00 69 1009.3
20260510031553 65 57 0.0 0.0 0.00 0.00 0.00 67 1009.3
20260510030048 66 57 0.0 1.0 0.00 0.00 0.00 66 1009.2
20260510024545 66 57 0.0 1.0 0.00 0.00 0.00 61 1009.1
20260510023033 66 57 0.0 2.0 0.00 0.00 0.00 61 1009.4
20260510021547 67 57 2.0 5.0 0.00 0.00 0.00 61 1009.3
20260510020034 67 61 2.0 5.0 0.00 0.00 0.00 61 1009.3
20260510014531 68 55 1.0 5.0 0.00 0.00 0.00 63 1009.5
20260510013032 68 49 1.0 5.0 0.00 0.00 0.00 63 1009.8
20260510011540 68 55 2.0 7.0 0.00 0.00 0.00 65 1009.9
20260510010033 68 51 5.0 9.0 0.00 0.00 0.00 62 1010.0
20260510004538 70 49 3.0 7.0 0.00 0.00 0.00 60 1010.1
20260510003034 71 58 2.0 5.0 0.00 0.00 0.00 61 1010.4
20260510001534 72 63 0.0 3.0 0.00 0.00 0.00 58 1010.5
20260510000058 72 65 1.0 3.0 0.00 0.00 0.00 58 1010.4
20260509234549 72 67 0.0 6.0 0.00 0.00 0.00 57 1010.7
20260509233040 72 342 0.0 2.0 0.00 0.00 0.00 59 1010.8
20260509231543 71 338 1.0 4.0 0.00 0.00 0.00 60 1011.0
20260509230041 72 79 1.0 5.0 0.00 0.00 0.00 57 1011.2
20260509224541 72 84 1.0 3.0 0.00 0.00 0.00 57 1011.5
20260509223044 71 80 1.0 4.0 0.00 0.00 0.00 57 1011.4
20260509221546 72 165 2.0 6.0 0.00 0.00 0.00 60 1011.8
20260509220027 72 280 1.0 5.0 0.00 0.00 0.00 60 1012.0
20260509214529 71 295 2.0 7.0 0.00 0.00 0.00 61 1012.2
20260509213027 70 50 0.0 4.0 0.00 0.00 0.00 60 1012.5
20260509211526 69 298 2.0 6.0 0.00 0.00 0.00 61 1012.5
20260509210037 69 5 1.0 3.0 0.00 0.00 0.00 60 1012.5
20260509204535 68 305 0.0 3.0 0.00 0.00 0.00 65 1012.7
20260509203029 68 274 1.0 7.0 0.00 0.00 0.00 63 1012.9
20260509201537 69 65 1.0 3.0 0.00 0.00 0.00 65 1012.9
20260509200035 68 26 0.0 3.0 0.00 0.00 0.00 65 1013.1
20260509194536 68 278 1.0 5.0 0.00 0.00 0.00 67 1013.3
20260509193034 68 109 0.0 3.0 0.00 0.00 0.00 69 1013.4
20260509191534 67 273 3.0 7.0 0.00 0.00 0.00 70 1013.9
20260509190036 66 266 3.0 7.0 0.00 0.00 0.00 70 1014.0
20260509184553 65 294 1.0 6.0 0.00 0.00 0.00 71 1014.1
20260509183035 64 272 1.0 4.0 0.00 0.00 0.00 72 1014.2
20260509181546 64 306 1.0 4.0 0.00 0.00 0.00 73 1014.2
20260509180039 63 279 0.0 6.0 0.00 0.00 0.00 77 1014.4
20260509174539 62 262 1.0 7.0 0.00 0.00 0.00 76 1014.3
20260509173023 62 44 2.0 5.0 0.00 0.00 0.00 79 1014.4
20260509171525 60 348 1.0 4.0 0.00 0.00 0.00 84 1014.7
20260509170025 59 320 1.0 4.0 0.00 0.00 0.00 88 1014.8
20260509164524 57 318 0.0 4.0 0.00 0.00 0.00 92 1014.7
20260509163025 55 296 1.0 4.0 0.00 0.00 0.00 94 1014.8
20260509161529 54 293 1.0 5.0 0.00 0.00 0.00 95 1015.0
20260509160034 53 301 0.0 0.0 0.00 0.00 0.00 95 1015.1
20260509154532 52 300 0.0 0.0 0.00 0.00 0.00 95 1015.3
20260509153042 51 291 0.0 0.0 0.00 0.00 0.00 95 1015.4
20260509151530 50 290 0.0 0.0 0.00 0.00 0.00 95 1015.6
20260509150039 48 289 0.0 0.0 0.00 0.00 0.00 95 1015.8
20260509144548 48 289 0.0 0.0 0.00 0.00 0.00 95 1015.8
20260509143029 47 289 0.0 0.0 0.00 0.00 0.00 94 1015.7
20260509141534 46 289 0.0 0.0 0.00 0.00 0.00 94 1015.6
20260509140033 46 289 0.0 0.0 0.00 0.00 0.00 94 1015.7
20260509134533 45 289 0.0 0.0 0.00 0.00 0.00 94 1015.6
20260509133019 44 289 0.0 0.0 0.00 0.00 0.00 94 1015.5
20260509131515 43 289 0.0 0.0 0.00 0.00 0.00 94 1015.5
20260509130018 43 289 0.0 0.0 0.00 0.00 0.00 93 1015.7
20260509124517 44 289 0.0 0.0 0.00 0.00 0.00 93 1015.8
20260509123020 45 289 0.0 0.0 0.00 0.00 0.00 93 1015.7
20260509121537 46 289 0.0 0.0 0.00 0.00 0.00 93 1015.8
20260509120020 46 289 0.0 0.0 0.00 0.00 0.00 93 1015.9
20260509114531 47 289 0.0 0.0 0.00 0.00 0.00 93 1015.8
20260509113031 47 289 0.0 0.0 0.00 0.00 0.00 93 1016.2
20260509111524 46 289 0.0 0.0 0.00 0.00 0.00 93 1016.3
20260509110029 46 289 0.0 0.0 0.00 0.00 0.00 93 1016.4
20260509104538 46 289 0.0 0.0 0.00 0.00 0.00 93 1016.4
20260509103009 45 289 0.0 0.0 0.00 0.00 0.00 93 1016.3
20260509101510 45 289 0.0 0.0 0.00 0.00 0.00 93 1016.3
20260509100015 44 289 0.0 0.0 0.00 0.00 0.00 93 1016.5
20260509094526 43 289 0.0 0.0 0.00 0.00 0.00 92 1016.5
20260509093014 43 289 0.0 0.0 0.00 0.00 0.00 92 1016.5
20260509091533 43 289 0.0 0.0 0.00 0.00 0.00 92 1016.6
20260509090022 43 289 0.0 0.0 0.00 0.00 0.00 91 1016.6
20260509084523 43 289 0.0 0.0 0.00 0.00 0.00 91 1016.7
20260509083022 44 289 0.0 0.0 0.00 0.00 0.00 91 1016.8
20260509081527 44 289 0.0 0.0 0.00 0.00 0.00 90 1016.8
20260509080007 45 289 0.0 0.0 0.00 0.00 0.00 90 1016.7
20260509074507 45 288 0.0 0.0 0.00 0.00 0.00 90 1016.6
20260509073011 46 288 0.0 0.0 0.00 0.00 0.00 90 1016.6
20260509071513 46 288 0.0 0.0 0.00 0.00 0.00 89 1016.6
20260509070013 47 288 0.0 0.0 0.00 0.00 0.00 88 1016.5
20260509064515 48 288 0.0 0.0 0.00 0.00 0.00 88 1016.6
20260509063025 49 288 0.0 0.0 0.00 0.00 0.00 88 1016.6
20260509061516 49 288 0.0 0.0 0.00 0.00 0.00 88 1016.5
20260509060021 50 289 0.0 0.0 0.00 0.00 0.00 87 1016.3
20260509054520 51 289 0.0 0.0 0.00 0.00 0.00 88 1016.3
20260509053111 51 289 0.0 0.0 0.00 0.00 0.00 88 1016.3
20260509051507 51 290 0.0 0.0 0.00 0.00 0.00 87 1016.3